Flag for Dominican Republic Weather past 2 weeks in Santiago de los Caballeros, Dominican Republic

Now
79 °F

Scattered clouds.


Feels Like: 82 °F
Forecast: 69 / 84 °F
Wind: 9 mph from South

Location: Santiago

Current Time: Dec 21, 2014 at 11:32:09 AM

Latest Report: Dec 21, 2014 at 11:00 AM


Visibility: N/A

Pressure: 30.09 "Hg

Humidity: 79%

Dew point: 72 °F

Location of Santiago de los CaballerosLocation

Historic Weather in Santiago de los Caballeros — Graph

°F

Santiago de los Caballeros temperature yesterday

Maximum temperature yesterday: 84 °F (at 2:00 PM)
Minimum temperature yesterday: 66 °F (at 6:00 AM)
Average temperature yesterday: 74 °F

Past Weeks' High & Low Weather Summary

 TemperatureHumidityPressure
High86 °F (Dec 10, 2:00 PM)100% (Dec 7, 7:00 AM)30.09 "Hg (Dec 7, 7:00 AM)
Low61 °F (Dec 8, 6:00 AM)29% (Dec 15, 1:00 AM)29.83 "Hg (Dec 14, 4:00 AM)
Average73 °F86%29.98 "Hg
* Reported Dec 6 10:00 AM — Dec 21 10:00 AM, Santiago de los Caballeros, Weather by CustomWeather, © 2014

Note: Actual official high and low records may vary slightly from our data, if they occured in-between our weather recording intervals... More about our weather records

Advertising

Santiago de los Caballeros weather history for previous 24 hours

 ConditionsComfort  
Time TempWeatherWind HumidityBarometerVisibility
10:00 AM
Dec 21
77 °FWarm.8 mph83%30.09 "HgN/A
9:00 AM70 °FPassing clouds.3 mph94%30.07 "HgN/A
8:00 AM64 °FPassing clouds.No wind100%30.04 "HgN/A
7:00 AM66 °FFog.No wind100%30.04 "Hg3 mi
6:00 AM66 °FPassing clouds.3 mph100%30.01 "HgN/A
5:00 AM66 °FPassing clouds.No wind100%30.01 "HgN/A
4:00 AM68 °FPartly cloudy.5 mph94%30.01 "HgN/A
3:00 AM68 °FPassing clouds.3 mph94%30.01 "HgN/A
2:00 AM68 °FPassing clouds.3 mph94%30.04 "HgN/A
1:00 AM68 °FPassing clouds.5 mph100%30.04 "HgN/A
12:00 AM70 °FPassing clouds.5 mph94%30.04 "HgN/A
11:00 PM
Dec 20
68 °FPassing clouds.6 mph100%30.07 "HgN/A
10:00 PM72 °FPassing clouds.5 mph88%30.04 "HgN/A
9:00 PM73 °FPassing clouds.6 mph83%30.04 "HgN/A
8:00 PM73 °FPassing clouds.7 mph83%30.01 "HgN/A
7:00 PM75 °FPassing clouds.7 mph83%29.98 "HgN/A
6:00 PM81 °FPassing clouds.12 mph70%29.98 "HgN/A
5:00 PM84 °FPassing clouds.10 mph51%29.95 "HgN/A
4:00 PM84 °FPassing clouds.12 mph55%29.95 "HgN/A
3:00 PM84 °FPassing clouds.13 mph55%29.95 "HgN/A
2:00 PM84 °FWarm.12 mph55%29.98 "HgN/A
1:00 PM82 °FPassing clouds.13 mph62%30.01 "HgN/A
12:00 PM81 °FPassing clouds.7 mph70%30.04 "HgN/A
11:00 AM79 °FPassing clouds.10 mph70%30.07 "HgN/A
Weather by CustomWeather, © 2014

See weather overviewHow to use our weather pages